Wind_Speed
26 26 25 24 23 22 21 20 19 19 19 19 19 18 18 18 18 17 16 15 14 14 13 12 11 11 11 11 10 9 9 8 8 8 8 8 8 8 8 8 8 8 9 9 10 10 9 9 8 8 8 9 10 10 11 11 10 10 10 9 9 9 9 10 11 11 10 10 11 9 8 9 9 7 6 6 5 5 5 3 3 3 3 5 7
27 28 27 25 24 23 22 21 20 19 19 20 20 19 19 19 19 18 17 16 15 15 14 13 13 12 12 12 11 11 10 10 9 9 9 9 9 9 9 9 9 9 9 9 9 9 9 10 10 9 9 9 10 10 11 11 10 10 10 10 9 9 10 10 11 12 11 10 11 11 9 9 10 9 7 7 6 5 4 3 3 4 5 7 9
26 28 28 27 26 25 24 23 22 21 20 20 21 21 21 20 19 19 19 18 17 16 16 15 15 14 14 13 13 12 12 11 11 10 10 10 10 9 9 9 9 9 9 9 9 9 9 10 10 10 10 10 10 10 10 10 10 9 9 9 9 9 9 10 10 11 11 10 10 11 9 9 10 9 7 7 7 5 5 4 4 6 7 9 10
23 26 28 29 29 28 26 25 24 23 22 22 23 23 22 21 20 20 20 20 19 18 17 17 17 16 16 15 15 14 13 12 12 12 12 12 12 11 11 10 10 10 10 9 9 9 9 9 9 10 10 10 10 10 10 10 10 10 9 9 8 8 8 9 9 10 10 10 8 9 9 8 8 7 6 6 7 6 6 6 7 8 10 11 12
20 23 26 29 30 29 28 27 26 26 25 25 26 25 25 24 22 22 21 21 21 20 19 19 19 18 18 17 16 15 14 14 14 13 13 13 13 13 12 11 11 11 11 10 9 9 9 8 9 9 9 9 10 10 10 10 10 11 10 10 9 8 8 8 9 9 10 10 8 7 7 7 7 6 5 6 7 7 7 8 9 11 13 14 15
20 22 25 27 29 30 29 29 29 28 28 28 27 27 27 26 25 24 23 22 22 21 21 20 20 20 19 18 17 16 16 15 15 15 15 15 15 15 14 13 12 12 12 11 11 10 10 9 9 9 9 9 9 10 10 10 11 11 11 11 11 11 10 9 9 9 10 10 9 8 7 7 8 9 8 8 9 10 9 10 12 13 14 16 18
24 25 25 26 28 30 31 31 31 31 31 30 29 28 27 27 27 26 25 24 23 23 22 22 22 21 20 19 19 18 17 16 16 15 15 15 15 15 15 15 14 13 13 13 13 12 12 12 11 11 11 10 10 10 11 11 11 11 11 11 12 12 12 11 10 11 11 11 11 10 10 10 11 12 11 11 11 12 12 13 15 17 17 16 18
29 30 30 28 28 30 32 33 34 34 34 32 31 29 27 27 27 27 26 25 24 24 24 23 23 22 21 21 20 19 18 18 18 17 16 16 16 16 16 16 15 15 14 14 14 14 14 14 14 14 13 13 13 12 13 12 13 13 12 12 12 13 13 13 12 12 13 13 14 13 13 14 14 15 15 14 14 15 16 16 17 20 20 19 18
34 34 35 33 31 30 32 33 34 35 35 34 33 31 29 27 27 27 26 25 25 25 24 24 23 22 22 22 21 21 20 20 20 19 18 18 17 16 16 16 16 16 16 16 16 16 16 16 16 16 16 16 16 16 16 15 15 16 15 14 14 14 14 14 14 14 14 15 16 16 16 17 18 18 18 18 18 18 18 18 19 20 22 21 20
36 36 37 36 34 34 34 34 33 33 34 34 34 33 31 30 29 28 27 26 26 25 25 24 24 24 23 23 22 21 21 22 22 22 21 20 19 18 17 17 17 17 17 17 17 18 18 18 18 18 18 18 18 18 18 18 18 19 19 17 17 16 16 17 17 16 16 16 17 17 17 19 21 21 20 21 21 20 20 20 20 20 21 20 21
33 35 35 35 36 38 38 36 33 33 34 34 34 34 34 33 32 30 29 28 27 27 26 26 26 26 25 24 23 22 22 23 23 23 23 22 21 20 20 19 18 18 19 19 19 19 19 19 19 19 19 20 20 20 20 20 20 21 21 20 20 19 19 19 19 19 19 18 19 19 19 20 22 22 22 22 23 22 22 21 20 20 20 19 20
29 30 31 32 35 39 40 38 35 36 37 36 35 36 37 37 36 34 32 30 29 29 28 28 28 27 27 26 25 24 24 24 24 24 24 24 23 23 22 21 21 21 21 21 21 21 21 21 21 21 21 21 21 21 22 22 22 22 22 21 21 20 20 20 21 22 22 21 21 22 22 22 23 24 24 24 23 23 23 22 21 20 19 19 20
28 27 27 28 30 33 36 38 37 38 40 39 37 37 38 38 37 36 35 33 32 30 30 29 29 28 28 27 26 26 25 25 25 25 25 25 25 24 24 24 23 23 23 23 23 23 23 23 23 23 23 23 23 23 23 23 23 22 21 21 20 20 20 20 21 22 23 23 22 23 25 24 23 24 25 24 23 22 22 22 21 20 20 20 20
27 27 26 26 27 28 30 32 33 36 39 40 39 39 39 38 37 36 37 36 34 32 31 31 30 29 29 28 28 27 27 27 27 27 26 26 26 25 25 25 24 25 25 25 25 24 24 24 24 24 25 25 25 25 25 25 24 23 22 21 21 20 20 20 21 22 23 23 22 23 25 25 23 23 24 23 21 21 21 20 21 21 21 21 20
23 24 24 22 22 21 19 21 24 29 34 38 39 39 39 38 37 36 37 36 34 33 32 31 31 30 30 29 29 29 29 29 29 28 28 27 26 26 25 25 25 25 25 25 25 25 25 25 25 25 25 26 26 27 26 25 24 23 22 22 21 21 21 21 22 23 22 22 22 22 23 25 24 24 24 23 22 21 21 20 21 22 22 21 21
20 21 22 20 19 17 15 14 15 20 26 32 36 37 37 38 38 37 36 35 33 32 32 31 30 30 30 30 30 31 31 31 30 30 29 28 27 26 26 25 25 25 25 25 25 25 25 25 25 25 25 26 27 27 26 25 23 23 23 22 22 22 21 23 25 24 24 23 22 21 22 23 24 25 25 25 24 23 22 21 23 25 24 21 22
19 21 22 20 19 18 17 15 13 14 17 22 28 33 35 35 34 34 33 33 32 32 32 32 31 30 30 30 31 31 32 32 32 31 30 29 28 27 26 25 26 26 26 26 25 25 25 25 25 25 25 26 27 27 27 25 24 23 23 23 22 22 23 26 27 26 25 24 23 22 22 22 23 24 25 27 27 26 24 22 25 27 25 22 22
24 25 25 22 21 19 18 17 16 15 15 15 18 24 30 32 31 31 31 32 32 33 33 33 32 31 31 31 31 32 33 33 33 33 32 30 29 28 27 26 26 27 28 28 27 27 26 27 27 26 26 27 28 29 29 28 26 25 25 23 23 23 25 27 27 27 28 27 25 24 23 23 24 25 26 27 29 29 26 24 26 28 26 24 24
28 28 27 25 24 23 21 19 19 19 18 17 15 16 20 25 27 27 29 30 31 32 32 31 31 31 31 31 32 33 34 34 35 34 33 32 31 29 28 28 28 28 29 29 29 28 28 28 28 28 27 28 30 31 32 32 31 29 28 27 26 26 27 28 28 28 29 29 28 27 26 25 25 26 27 28 30 31 29 27 27 28 27 25 25
29 29 28 25 25 25 24 22 22 22 21 21 20 18 17 18 19 19 21 23 27 29 30 30 30 30 31 31 32 33 34 35 35 36 36 35 34 32 30 29 30 30 30 30 30 29 29 28 28 28 28 29 31 32 33 33 33 33 32 31 30 29 29 29 29 30 30 30 30 30 29 29 28 28 28 29 31 32 32 30 29 29 28 26 26
29 29 29 28 27 27 26 24 24 24 23 24 24 23 22 22 21 20 19 19 21 25 28 29 31 31 31 31 33 34 34 35 36 38 38 38 37 35 33 31 31 31 31 31 31 30 30 29 29 29 28 29 30 31 32 32 32 33 33 33 33 32 31 31 32 32 32 32 32 31 31 32 31 31 31 31 32 33 33 31 30 30 29 28 27
29 30 30 30 28 28 28 28 27 26 26 26 26 24 25 27 28 26 23 21 21 23 24 26 28 30 31 33 34 34 34 35 36 38 40 40 39 37 36 34 32 31 31 32 32 32 31 31 30 30 30 30 30 31 31 31 31 32 32 33 32 32 32 32 33 33 33 34 34 33 33 33 34 34 34 34 35 35 35 33 32 32 31 30 29
30 30 31 31 30 29 29 29 28 28 27 28 28 26 26 28 28 27 26 26 27 29 27 25 24 25 27 30 32 33 35 35 36 37 38 38 38 37 36 34 32 31 31 32 32 32 31 30 30 31 32 32 32 32 33 32 32 32 32 32 31 31 31 32 33 33 34 35 35 35 35 36 36 36 36 37 37 37 36 36 36 35 33 32 31
32 32 32 32 32 31 30 30 30 30 29 29 29 28 27 28 28 28 27 27 28 30 31 30 28 27 26 26 27 29 32 33 34 36 36 35 35 35 34 33 31 30 30 31 31 31 30 30 30 31 32 33 33 33 34 34 34 34 34 34 32 31 31 32 33 33 33 34 36 36 36 37 37 37 38 38 38 38 38 39 39 38 37 35 34
34 34 34 34 34 34 33 33 32 32 31 30 30 30 29 28 28 28 28 27 27 28 29 31 31 30 30 29 28 28 29 29 29 30 31 31 33 33 32 30 30 29 29 30 30 30 31 31 31 32 32 33 33 34 35 35 36 36 36 36 35 35 34 35 35 35 34 34 35 35 35 36 37 37 38 38 39 39 40 40 40 40 40 39 37
37 37 37 37 37 37 36 36 35 35 34 33 33 32 31 31 30 29 29 29 29 28 28 29 30 30 30 31 32 32 32 31 31 30 30 30 30 31 31 30 29 29 30 30 31 32 32 33 33 33 33 33 34 34 35 36 37 37 37 38 37 37 36 37 37 36 34 33 33 33 33 35 36 37 38 39 39 40 41 42 41 41 41 41 39
41 41 41 41 40 40 40 39 38 38 37 37 36 35 35 34 33 33 32 32 31 31 30 30 30 31 31 32 32 33 34 34 34 34 34 34 33 33 33 32 32 31 32 32 34 35 35 36 35 35 35 35 35 36 36 37 38 38 38 38 37 36 36 37 37 35 34 33 32 31 33 35 36 37 39 39 40 41 42 42 42 41 42 42 39
44 44 45 45 44 44 44 44 43 42 41 40 40 39 39 38 37 36 35 35 34 34 34 33 33 33 34 34 34 35 35 35 35 34 34 35 36 36 35 35 36 36 36 36 37 38 38 38 38 38 38 39 39 38 38 38 38 38 39 39 38 37 37 37 37 36 33 31 31 31 32 34 36 37 38 38 39 41 42 42 41 41 41 41 38
44 45 45 46 46 46 46 46 46 46 46 45 44 43 42 42 41 40 39 38 37 37 37 36 36 37 37 37 37 37 37 38 37 37 36 36 37 37 38 38 38 39 39 40 40 41 41 41 41 41 41 41 41 41 41 40 40 39 39 40 40 40 39 39 39 38 34 31 31 31 32 34 35 36 37 37 37 38 39 40 39 39 39 39 38
46 46 46 46 46 46 46 46 46 47 47 48 47 47 46 45 44 43 42 41 40 40 40 39 39 39 39 39 39 39 40 40 40 40 39 39 39 39 40 41 41 41 41 41 42 42 43 43 43 43 43 43 43 42 42 42 42 42 42 42 42 42 42 42 41 40 38 35 32 32 33 34 34 35 36 36 35 34 35 36 36 36 37 38 38
49 48 47 47 47 47 47 47 47 47 47 48 48 48 48 47 47 46 45 45 43 42 42 42 42 42 42 42 41 41 42 42 42 42 42 41 41 41 41 42 43 43 42 42 42 43 43 43 44 44 44 44 44 44 43 43 43 44 44 44 44 45 44 44 44 44 43 40 37 34 34 35 35 36 37 36 35 33 33 34 35 36 37 37 37
51 50 50 49 49 48 48 48 49 49 49 49 49 49 49 49 48 48 47 47 47 46 45 44 44 44 44 44 44 44 43 43 43 43 43 43 43 43 43 44 44 44 44 43 43 43 43 43 43 44 44 44 44 45 45 45 45 45 45 45 46 46 46 46 46 46 46 44 42 39 37 37 37 37 37 38 37 36 36 36 37 37 37 37 37
52 52 52 52 51 51 50 51 51 51 51 52 52 52 51 51 50 50 49 49 49 49 48 48 47 46 46 46 46 46 46 45 45 44 44 44 45 45 46 46 46 46 46 45 45 45 44 44 44 44 44 44 45 45 45 46 46 46 45 45 46 46 47 48 48 48 48 47 46 44 42 40 40 39 39 39 38 38 38 38 38 39 38 38 38
54 54 54 54 53 53 53 53 53 54 54 53 53 53 53 53 53 53 52 52 51 51 51 51 50 50 49 49 49 49 48 48 48 47 47 47 48 48 48 49 49 48 48 48 48 47 47 47 47 46 46 46 46 46 46 46 47 47 46 46 46 46 47 47 48 48 49 49 49 48 47 45 44 43 42 42 41 41 40 39 39 40 40 40 41
55 55 55 55 55 55 55 55 56 56 56 56 55 55 54 54 54 54 54 54 54 54 54 54 54 54 54 53 53 53 52 51 51 51 51 51 51 51 51 51 51 51 51 51 50 50 50 50 49 49 49 49 49 48 48 48 48 48 48 48 48 47 47 48 48 49 49 49 50 50 50 49 48 47 46 45 45 45 45 44 43 42 42 43 43
55 55 55 56 56 57 57 57 58 58 58 58 58 57 57 57 56 56 56 57 57 57 57 57 57 58 58 58 57 57 57 56 55 55 55 55 55 55 55 55 55 54 54 54 53 53 53 53 52 52 52 51 51 51 51 51 51 51 51 50 50 50 50 50 50 50 50 50 50 50 51 51 51 50 50 48 47 48 48 47 47 45 44 44 44
55 55 55 55 56 57 57 58 59 60 60 59 59 59 59 59 59 59 60 60 60 60 60 60 60 60 61 62 61 61 61 60 60 59 59 59 58 58 58 58 58 58 58 58 57 57 56 56 55 55 55 54 54 53 53 53 52 52 52 53 53 53 53 53 53 52 52 52 52 52 52 52 52 53 52 51 49 49 49 49 48 47 46 45 45
54 54 54 54 54 55 56 58 59 60 60 60 60 60 60 60 60 61 62 62 62 62 62 63 63 63 64 64 64 64 64 64 63 63 63 63 62 62 61 61 61 61 61 61 61 60 60 59 59 58 58 57 57 56 56 55 54 54 54 54 54 54 55 55 55 55 55 55 55 54 54 54 54 54 54 53 52 50 50 49 49 49 48 47 46
54 54 54 54 53 54 54 56 57 58 58 59 59 59 59 60 60 61 61 62 62 63 63 64 64 65 65 66 66 66 66 66 66 66 66 66 66 65 65 64 64 63 63 63 63 63 63 62 62 61 61 60 60 59 59 58 58 57 56 56 55 56 56 56 57 57 57 57 57 57 57 57 56 56 56 56 55 54 52 51 51 50 49 48 48
53 53 54 54 54 53 53 53 54 55 55 56 57 58 59 59 59 60 60 61 61 62 63 63 64 65 66 67 67 67 67 67 68 68 69 69 69 68 68 67 66 66 65 65 65 65 65 64 64 64 63 63 63 62 62 61 61 60 60 59 59 58 58 58 58 59 59 58 59 59 59 59 59 58 58 58 58 57 56 55 54 53 52 50 50
52 53 54 54 54 54 54 54 53 53 53 54 55 56 57 58 59 59 59 60 61 61 62 63 63 64 65 66 67 68 68 68 68 69 69 70 70 70 70 70 69 69 68 68 67 67 66 66 66 66 66 66 65 65 65 64 64 63 63 62 62 61 61 61 61 61 60 60 60 60 60 60 60 60 60 60 60 60 59 58 57 56 55 54 53
51 53 54 54 54 54 54 54 54 54 53 53 54 54 55 56 57 58 59 60 60 61 62 63 63 64 65 66 67 67 68 68 69 69 70 70 71 71 71 71 72 72 71 71 70 69 69 68 68 68 68 68 68 68 68 68 67 67 66 66 65 64 64 64 64 64 63 63 62 61 61 61 62 62 61 61 61 61 61 60 59 59 58 58 57
52 52 53 54 54 54 54 54 54 54 54 53 53 53 54 54 55 56 57 59 60 61 62 63 63 64 65 65 66 67 68 68 69 70 70 71 71 72 72 72 73 73 73 73 72 72 72 71 71 71 71 71 71 72 72 71 71 70 70 69 68 68 67 67 67 67 66 66 65 64 63 63 63 63 63 63 63 63 62 62 61 61 60 60 60
55 54 53 54 54 54 54 54 54 54 54 54 53 53 53 53 54 54 55 56 57 59 60 61 62 63 64 65 66 67 68 68 69 69 70 71 71 72 73 73 73 74 74 74 74 74 73 73 74 73 73 73 74 75 75 75 74 74 73 73 72 71 71 70 70 70 70 69 68 67 66 66 65 65 65 65 65 65 64 64 63 63 62 62 61
56 55 55 54 54 54 54 54 54 54 54 54 54 53 53 53 53 53 53 54 55 56 57 58 59 60 61 63 64 65 67 68 69 69 70 71 72 72 73 74 74 74 75 75 75 75 75 75 75 75 75 76 76 77 77 78 77 77 77 76 76 75 75 74 74 73 73 73 72 71 70 69 68 68 68 68 67 67 67 66 66 66 65 64 63
55 55 54 54 54 53 53 53 53 54 54 54 54 54 54 53 53 53 53 53 54 54 55 56 56 57 58 59 60 62 63 64 66 67 69 70 71 72 73 74 74 75 76 76 76 76 76 77 77 77 77 77 78 78 79 80 79 79 79 79 79 79 78 78 77 77 76 76 76 75 74 73 72 72 72 71 71 70 70 69 69 69 68 67 66
53 52 52 52 52 52 52 52 52 52 53 53 53 54 54 54 54 54 55 55 55 55 56 56 57 57 58 59 59 60 61 61 62 63 65 66 67 69 70 71 72 73 74 75 76 77 77 78 78 79 79 79 80 80 81 81 81 81 81 81 81 81 81 81 81 81 80 80 79 79 78 77 76 76 75 75 75 74 73 73 73 72 71 70 69
52 51 51 50 50 51 51 51 51 51 51 52 52 53 53 53 54 55 55 56 56 57 57 57 58 58 58 59 59 60 60 61 61 62 62 63 64 65 66 68 69 70 70 71 73 74 75 76 77 78 79 80 81 81 82 82 83 83 84 84 84 83 83 83 83 83 83 83 83 82 82 80 79 79 79 79 79 78 77 77 76 76 75 74 73
51 50 49 49 49 49 50 50 50 50 51 51 51 52 52 52 53 54 54 55 56 57 57 57 58 58 58 59 59 59 60 60 60 61 61 62 63 64 65 66 67 67 68 69 70 70 71 72 74 75 76 78 79 80 81 82 83 85 85 86 85 85 86 86 86 86 86 86 86 85 85 84 83 82 82 82 82 82 81 81 80 80 79 78 76
50 49 48 47 47 47 47 48 48 48 49 49 49 50 50 50 50 51 52 53 53 54 55 55 56 56 57 58 58 59 60 60 61 61 62 62 63 64 65 66 67 68 69 69 70 70 71 71 72 73 73 75 76 77 78 79 81 83 84 85 85 86 86 87 87 88 89 89 89 88 88 88 87 86 86 85 85 85 84 84 84 83 82 81 80
48 49 48 47 46 46 46 46 46 46 47 47 47 47 47 48 48 48 49 50 50 51 51 52 53 53 54 55 56 57 57 58 59 59 60 61 62 63 64 66 67 68 69 70 71 71 72 72 73 73 74 75 76 76 77 78 79 80 81 83 84 85 86 87 87 88 89 90 90 90 90 90 90 90 89 89 89 89 88 88 87 86 85 85 84
Wind_Direction
213 212 211 210 208 206 207 208 208 210 211 212 214 217 220 222 224 224 223 222 223 224 226 227 229 231 233 233 235 239 245 249 246 239 232 225 221 218 218 220 224 229 233 236 238 239 238 237 238 240 243 243 244 244 244 245 246 248 251 257 261 262 262 263 268 274 272 268 271 273 272 278 283 285 286 287 285 282 284 289 299 312 326 332 336
213 213 212 212 211 210 210 210 210 210 212 214 215 215 218 221 223 224 225 225 227 228 230 232 234 237 239 240 241 243 248 253 255 252 247 240 232 226 224 225 227 229 232 235 238 241 242 243 243 244 245 244 244 245 246 248 249 250 253 258 261 261 262 264 269 276 278 273 274 278 276 276 281 286 286 287 289 289 291 303 312 315 325 332 332
215 215 213 212 212 211 211 212 212 212 212 215 216 216 217 218 221 223 224 225 227 229 231 233 236 238 240 242 243 245 248 254 258 259 257 252 245 239 236 236 237 237 237 237 240 243 245 245 246 248 249 249 250 250 250 250 251 253 257 262 266 266 266 269 272 277 283 283 279 282 282 276 276 279 277 277 283 290 298 310 314 315 321 325 323
219 218 216 215 214 212 211 211 212 213 214 214 214 214 215 216 218 221 223 223 224 226 228 232 234 237 239 242 244 246 249 253 258 261 260 257 252 248 245 244 246 247 247 245 244 246 249 251 251 252 253 255 256 258 259 258 258 260 262 266 271 272 272 275 278 280 285 289 287 285 284 280 276 274 269 269 276 283 295 306 310 313 316 317 316
223 224 222 219 217 215 213 212 213 214 215 216 215 214 212 212 213 216 220 222 223 224 225 229 232 235 238 240 244 247 249 253 256 259 259 258 255 252 248 247 247 251 253 254 254 254 255 257 260 261 262 262 262 262 263 264 263 262 262 263 267 272 273 277 282 284 285 290 293 288 283 283 281 276 271 272 278 286 297 305 310 312 315 315 314
225 227 227 224 221 219 217 216 215 216 217 219 219 218 214 212 211 212 215 218 221 222 223 226 229 232 235 237 241 244 247 250 254 258 260 260 258 256 254 250 247 248 251 256 259 260 261 263 266 270 273 274 274 273 271 269 268 266 264 262 262 265 267 270 275 278 280 284 286 282 276 275 276 278 279 280 284 291 299 303 306 308 310 310 308
229 229 229 225 222 221 220 219 218 218 219 221 222 222 220 218 216 215 214 215 218 221 223 225 228 231 232 234 237 239 243 247 250 253 257 260 261 261 261 259 256 253 252 254 257 261 263 265 266 270 273 277 280 282 282 281 280 278 277 274 270 267 268 268 267 268 272 276 277 278 276 273 273 275 281 285 285 287 293 297 300 302 304 303 299
233 233 232 229 224 221 220 220 221 221 220 221 223 224 223 223 222 220 218 217 218 220 223 225 227 230 232 233 234 236 238 243 246 247 250 253 258 261 263 264 264 262 259 257 257 259 261 264 265 267 269 270 272 274 277 280 282 284 284 284 281 277 275 274 271 268 270 272 275 277 279 279 277 277 280 283 283 284 288 292 293 295 298 298 293
233 234 234 232 229 226 224 223 223 224 225 224 225 224 223 223 224 224 222 220 220 221 223 226 227 229 231 233 234 235 236 239 242 245 246 247 250 253 257 260 262 263 263 261 260 259 260 261 263 265 266 268 268 268 269 271 273 276 277 278 279 280 280 279 277 274 272 271 272 276 278 278 278 279 280 281 282 284 287 289 289 288 291 292 288
236 236 235 235 234 232 229 226 225 226 228 229 229 229 227 225 224 224 223 222 222 222 223 226 227 228 230 232 234 235 236 239 241 244 245 245 246 246 248 250 253 256 258 259 259 259 260 260 262 263 265 267 268 270 270 270 271 272 273 274 275 277 279 280 280 279 277 275 273 274 276 276 277 280 281 281 283 286 287 288 287 284 283 284 283
241 239 239 239 239 237 232 227 225 226 227 228 229 230 230 229 227 224 223 223 223 223 224 226 227 228 229 230 232 234 236 240 242 245 247 248 247 247 246 246 247 249 251 254 256 257 259 260 262 263 264 265 267 269 270 270 270 270 271 272 272 273 274 276 277 278 277 277 276 275 274 273 276 279 280 281 285 288 289 288 285 281 280 278 277
242 243 243 243 244 243 238 232 229 228 227 226 227 229 230 230 229 228 226 225 224 225 226 227 229 230 231 231 231 233 236 240 243 246 249 251 251 251 250 249 247 247 249 251 254 255 257 259 261 262 263 264 266 267 268 269 270 271 272 274 275 276 275 275 276 277 276 275 275 275 274 273 274 277 280 283 286 289 290 288 285 282 280 279 276
241 244 246 246 247 246 242 237 233 231 229 227 227 228 230 230 230 230 230 229 228 228 228 230 232 233 235 235 235 235 236 239 242 245 247 250 252 252 252 252 252 252 252 253 255 257 258 260 262 264 265 267 268 269 269 270 272 275 277 280 282 282 281 280 279 279 279 278 277 277 277 276 276 278 282 286 289 290 290 288 288 285 281 279 279
240 241 242 246 247 246 244 241 237 235 233 231 229 229 229 228 227 228 229 231 232 232 232 232 234 236 237 239 240 240 240 241 242 243 245 247 250 251 252 254 255 256 257 258 259 260 262 263 264 266 268 269 270 271 272 274 276 279 281 283 283 283 283 282 280 278 278 279 280 280 281 282 282 281 282 286 288 288 287 287 286 284 280 279 279
237 236 235 239 243 244 246 246 244 240 236 233 232 232 230 229 227 226 227 229 230 232 234 234 236 237 238 240 242 243 244 245 245 246 247 248 250 252 254 255 255 256 257 259 261 263 264 265 265 267 269 271 272 274 276 279 283 285 286 285 284 283 283 281 279 277 277 277 278 279 281 284 286 286 285 285 285 284 284 284 283 280 279 280 281
233 232 231 232 235 236 241 248 248 244 239 235 233 232 231 231 230 228 228 227 227 230 233 235 237 238 239 240 242 243 245 247 249 250 251 252 253 255 256 257 258 258 259 259 261 263 266 267 269 270 273 274 275 277 279 282 285 286 285 285 284 283 282 279 277 277 277 277 277 278 279 280 283 284 284 284 283 282 283 284 282 279 279 280 279
239 238 237 237 237 240 247 253 253 248 245 241 237 234 232 233 232 231 230 230 230 230 232 233 235 237 239 240 241 243 244 246 249 250 251 252 254 255 256 258 260 261 261 261 262 264 267 270 272 273 275 276 278 280 281 282 282 281 281 281 281 282 280 278 278 280 280 279 278 277 275 275 276 278 279 280 280 278 279 280 279 280 282 281 278
248 249 248 246 246 250 257 261 261 259 258 253 246 241 237 234 233 233 233 233 235 235 234 233 233 235 237 238 239 241 243 246 248 249 251 252 254 255 255 256 258 260 261 262 264 266 268 270 272 274 276 279 281 282 282 280 279 278 278 278 279 279 278 278 281 284 284 283 282 279 276 274 274 274 275 276 276 276 276 275 276 278 281 282 280
249 252 253 252 252 257 260 259 257 256 255 253 259 259 245 234 232 234 234 235 237 237 236 236 237 238 239 239 238 239 242 246 248 250 251 252 253 254 255 256 257 259 261 262 263 265 268 270 271 273 275 276 277 278 279 279 279 280 279 279 278 277 277 279 282 283 284 285 286 284 283 280 278 276 275 275 277 278 278 276 275 277 280 281 282
245 249 250 248 248 253 257 257 254 254 255 257 261 263 251 237 234 235 235 236 239 240 239 237 237 239 241 242 242 241 242 245 247 249 250 250 251 252 254 255 256 257 258 258 259 262 265 268 270 271 270 270 270 272 274 276 278 279 279 278 277 277 278 279 280 280 281 284 286 287 287 286 284 281 279 278 278 278 278 278 278 278 280 280 280
242 245 247 246 241 240 244 250 252 254 258 260 260 259 256 253 251 246 242 241 241 242 242 240 237 238 239 241 243 243 243 244 245 246 247 248 250 252 254 256 256 255 255 255 256 261 265 267 268 269 269 269 269 269 270 272 273 275 275 276 276 277 278 279 279 280 281 283 284 286 287 285 284 283 281 280 279 278 278 278 278 279 279 279 278
239 242 245 247 244 239 240 245 248 249 252 256 258 257 257 260 262 258 253 250 247 245 246 243 239 237 238 240 243 244 245 246 247 248 248 247 248 251 253 255 255 254 254 255 258 263 265 267 267 269 270 270 271 271 272 274 275 277 277 278 278 278 278 278 279 280 281 283 283 283 281 279 278 277 278 278 278 279 280 280 280 279 279 278 278
239 240 243 246 247 244 244 246 249 249 249 252 255 253 250 254 262 265 264 261 258 256 255 253 248 242 240 240 241 243 245 246 247 248 248 248 249 250 252 254 253 253 254 256 259 261 263 264 266 267 269 270 271 273 274 276 278 279 280 280 280 280 281 281 282 282 281 280 279 278 277 275 273 273 275 276 277 279 281 282 282 281 281 281 281
244 243 244 246 247 247 246 246 248 249 249 250 253 254 251 250 254 260 264 265 265 263 260 259 258 255 251 247 244 242 243 244 244 244 245 247 249 250 251 252 252 252 253 254 256 258 260 261 263 265 267 268 270 271 273 275 276 277 278 279 279 280 281 283 284 284 282 278 276 275 275 274 273 273 274 276 277 279 280 281 281 282 282 282 282
246 246 246 247 248 249 248 248 248 250 251 252 253 254 255 254 253 255 257 260 264 266 265 262 261 262 262 260 257 254 250 248 246 245 246 247 247 247 248 248 249 250 251 252 253 255 257 259 261 263 265 267 268 269 270 271 272 273 274 276 277 279 280 282 282 283 283 280 277 275 274 272 272 273 274 275 277 278 278 278 279 280 281 281 281
246 247 248 249 249 250 251 250 249 250 251 252 254 255 255 256 255 255 255 256 257 260 262 263 262 262 264 264 264 263 261 259 256 254 252 251 249 248 246 245 246 248 250 251 252 254 255 257 259 261 263 264 265 266 267 268 269 271 272 273 275 277 278 280 281 282 282 281 278 276 273 271 271 273 275 277 278 279 278 277 277 278 280 280 281
248 249 249 249 250 251 252 253 252 251 251 251 253 254 255 255 255 254 254 255 255 255 255 257 258 258 259 261 262 262 263 263 262 260 257 255 253 252 250 249 248 249 250 251 252 253 255 256 257 258 260 261 262 263 264 266 267 269 270 271 274 276 277 279 280 281 281 279 277 275 272 271 272 273 276 278 280 279 277 276 275 275 276 278 280
251 251 251 250 250 250 252 253 254 254 253 252 252 253 254 254 253 253 253 253 253 253 252 252 253 252 253 254 257 258 259 260 261 261 259 256 254 253 253 253 252 251 251 251 252 253 254 255 256 257 257 258 259 261 262 264 265 267 268 269 271 273 275 277 280 281 280 277 275 273 272 272 273 274 276 279 280 279 277 275 274 273 273 275 277
252 252 251 251 250 250 250 251 252 254 254 254 253 253 253 254 254 253 252 252 252 252 251 251 251 251 251 251 252 254 256 256 256 257 256 255 254 253 253 253 253 252 252 252 252 253 254 255 257 257 258 258 259 260 261 262 263 264 265 266 268 270 272 274 277 279 279 277 274 273 272 272 273 274 277 279 280 278 276 274 273 272 272 272 274
253 252 251 251 250 250 250 250 251 252 252 253 253 253 252 253 254 254 254 252 252 251 252 252 251 251 251 251 250 251 252 254 254 255 255 255 254 254 254 255 255 255 254 254 254 255 255 256 257 258 259 260 261 261 262 262 263 263 263 264 266 267 269 270 272 274 275 275 274 273 273 273 273 273 275 278 279 277 275 273 272 271 270 272 273
252 251 251 250 250 251 251 251 250 251 251 252 252 252 252 251 252 253 254 255 254 252 252 252 252 252 252 252 251 251 251 252 253 254 255 255 256 256 256 256 257 257 258 257 257 257 257 258 258 259 260 261 262 263 263 262 262 263 263 264 265 266 266 268 269 270 271 272 272 271 271 272 272 271 271 273 275 275 275 274 274 273 273 274 275
250 250 250 250 250 251 251 252 252 251 251 251 251 252 252 251 251 251 253 254 255 255 254 253 253 253 253 253 253 253 253 252 253 254 255 257 257 258 258 258 258 259 259 260 259 259 260 260 260 260 260 261 262 262 263 263 263 262 263 264 265 265 266 266 267 268 269 270 271 270 269 269 270 271 270 270 270 271 273 274 274 275 276 277 278
249 250 250 250 251 251 251 252 252 252 252 252 252 252 253 252 252 251 251 252 253 255 256 255 255 254 254 254 254 255 256 256 256 256 256 257 258 259 260 260 261 261 261 261 261 261 261 262 262 262 262 262 262 262 262 263 263 263 263 263 263 265 266 267 267 268 268 269 270 270 269 268 268 268 269 269 268 268 269 270 272 274 276 278 280
250 250 250 250 251 251 250 250 251 251 252 252 253 253 253 253 254 254 253 252 252 252 254 255 256 256 256 256 256 256 257 257 258 259 259 259 259 259 260 261 262 262 263 263 263 263 262 262 262 262 262 262 262 262 262 263 263 264 264 264 264 264 265 266 267 268 268 269 270 270 269 268 267 266 267 268 269 269 268 269 270 273 276 278 279
250 250 250 250 250 250 250 249 249 249 250 250 251 252 252 253 253 254 254 254 253 252 252 253 255 256 256 257 257 257 257 257 258 259 259 259 260 260 261 261 262 263 263 264 264 264 264 264 263 263 262 262 262 262 262 262 263 263 263 264 264 264 264 265 266 267 267 268 269 270 270 270 268 267 266 267 268 269 270 270 271 272 274 276 277
250 249 249 249 250 250 250 249 249 249 249 249 249 250 251 251 252 252 253 253 254 254 254 254 254 255 256 257 258 258 259 259 259 259 259 259 259 260 261 262 262 263 263 263 264 264 265 265 265 265 264 264 263 263 262 262 262 262 262 262 263 263 264 264 265 266 266 267 267 268 270 271 270 269 268 267 267 268 270 271 271 272 273 274 275
251 250 250 250 250 250 250 249 249 249 249 249 249 249 249 250 250 251 251 252 253 253 254 254 255 255 256 257 258 258 259 260 260 260 260 260 260 260 260 261 262 263 263 264 264 264 264 264 265 265 265 265 265 264 264 263 262 262 262 262 262 262 263 263 264 264 265 266 266 267 268 269 270 271 270 269 268 268 268 269 270 271 272 273 273
252 252 251 251 250 250 250 250 250 250 250 250 249 249 249 249 250 250 250 251 252 252 253 254 254 254 255 255 256 257 258 259 259 260 260 260 260 260 260 260 261 261 262 263 263 264 264 264 264 264 264 265 265 265 265 265 264 263 263 262 262 262 262 262 263 263 264 264 265 265 266 267 269 270 271 271 270 269 268 268 269 269 270 271 272
253 253 253 252 251 251 251 251 251 252 252 252 251 251 250 250 250 250 250 251 251 252 252 253 253 254 254 254 254 255 256 257 257 258 259 259 259 260 260 260 260 260 261 261 261 262 263 263 264 264 264 264 264 264 264 264 265 264 264 263 263 263 263 262 262 263 263 264 264 265 265 266 266 268 269 270 270 270 270 269 269 269 269 269 270
255 255 255 254 254 253 253 253 253 253 253 253 253 253 252 252 251 251 251 251 252 252 252 252 253 253 254 254 254 254 254 255 255 256 257 258 258 259 259 259 259 260 260 260 260 261 261 262 263 263 264 264 264 264 264 264 264 264 264 264 263 263 263 263 263 262 262 263 263 264 265 265 265 266 267 268 269 269 270 270 270 270 270 269 269
256 256 256 256 256 256 256 255 255 255 255 254 254 254 254 253 253 253 253 252 252 252 252 252 252 253 253 254 254 254 254 254 255 255 255 256 257 257 258 258 259 259 259 259 260 260 260 261 261 262 263 263 263 264 263 263 263 263 263 263 262 262 262 262 262 262 262 262 262 263 264 264 265 265 266 266 267 268 268 268 269 269 270 270 270
258 257 257 257 257 257 257 257 257 257 257 256 256 255 255 255 255 254 254 253 253 253 253 252 252 252 253 253 253 254 254 254 254 255 255 255 256 256 256 257 258 258 259 259 259 259 259 260 260 260 261 262 262 262 262 262 262 262 262 262 262 262 262 262 262 262 262 262 262 262 262 263 264 265 265 266 266 267 267 267 268 268 268 269 269
257 258 258 258 257 257 257 257 257 257 257 257 257 257 257 257 256 256 256 255 254 254 253 253 253 253 253 253 253 254 254 254 254 254 254 255 256 256 256 257 257 257 258 258 258 259 259 260 260 260 260 260 261 261 261 261 262 262 262 262 262 262 262 262 262 262 262 262 261 261 261 261 262 263 264 264 265 266 266 267 267 267 267 267 268
257 257 257 258 258 257 257 257 257 257 257 258 258 258 258 258 258 257 257 257 256 256 255 255 254 254 254 254 254 254 254 254 254 254 254 254 255 255 256 257 257 257 258 258 258 258 259 259 259 260 260 260 261 261 261 261 261 261 261 261 261 261 261 261 261 261 262 262 261 261 261 261 261 261 262 263 263 264 265 265 266 266 266 266 266
257 257 257 257 257 257 257 257 257 257 257 257 257 258 258 258 258 258 258 258 258 258 258 258 257 257 256 256 256 256 256 256 256 256 256 256 256 256 256 256 257 257 258 258 258 258 258 259 259 259 259 260 261 261 261 261 261 261 261 261 261 261 261 261 261 261 261 261 261 261 261 261 261 261 261 261 262 262 263 263 264 265 265 266 266
257 256 256 256 256 256 256 256 257 257 257 257 257 257 257 257 258 258 259 259 259 259 259 260 260 259 259 259 259 258 258 258 258 258 258 258 258 258 258 257 257 257 257 258 258 258 258 259 259 259 259 260 260 261 261 261 261 261 261 261 261 261 261 261 261 260 260 260 260 260 260 260 260 260 260 260 260 261 261 261 262 263 263 264 264
256 255 255 255 255 255 255 256 256 257 257 257 257 257 258 258 258 259 259 260 260 260 261 261 261 261 261 261 261 261 261 261 261 260 260 260 260 260 260 260 259 259 259 258 258 258 258 258 258 258 258 259 259 260 261 261 261 261 261 260 260 260 260 260 261 261 260 260 260 260 259 259 259 259 260 260 260 260 260 260 260 261 261 262 262
255 254 253 253 253 254 254 254 255 256 257 257 258 259 259 259 260 260 260 261 261 262 262 262 262 263 263 263 263 263 263 263 263 263 263 263 263 263 263 263 263 262 262 261 260 260 259 259 258 258 258 258 258 259 259 260 261 261 260 260 260 260 260 260 260 260 260 260 260 260 260 259 259 259 259 259 259 259 259 259 259 259 259 260 260
253 253 253 252 253 253 253 254 254 255 256 257 258 259 260 261 261 261 262 262 262 263 263 264 264 264 264 264 264 264 264 264 265 265 265 265 265 265 265 265 265 265 264 264 263 263 262 261 261 260 259 259 259 258 259 259 260 260 261 260 260 260 260 260 259 259 259 259 259 259 259 259 259 259 258 258 258 258 258 258 258 258 258 258 258
252 252 252 252 252 253 253 253 254 255 256 257 258 259 260 261 262 262 263 263 263 264 265 265 265 266 266 266 266 266 266 266 266 266 266 266 266 266 266 266 266 266 266 265 265 265 264 264 263 263 262 261 261 260 260 260 260 260 261 261 261 261 261 261 260 260 260 259 259 259 259 259 259 258 258 258 258 258 257 257 257 257 257 257 257
252 251 251 252 253 254 254 255 255 256 257 258 259 260 261 262 263 263 263 264 264 264 265 265 266 266 267 267 267 267 267 268 268 268 268 268 268 268 268 268 267 267 267 266 266 266 266 265 265 264 264 263 263 262 262 261 261 262 262 262 262 262 262 262 261 261 261 261 260 259 259 259 258 258 258 258 258 258 258 257 257 256 256 256 256
Height
5936 5938 5939 5940 5942 5943 5945 5947 5948 5949 5950 5950 5951 5953 5954 5955 5957 5958 5959 5960 5961 5961 5962 5962 5962 5963 5963 5963 5963 5962 5962 5962 5962 5962 5962 5962 5962 5962 5962 5963 5963 5964 5965 5965 5966 5966 5966 5966 5967 5967 5967 5968 5968 5968 5968 5969 5969 5969 5970 5970 5971 5971 5971 5971 5971 5971 5971 5972 5972 5972 5972 5972 5972 5971 5971 5971 5971 5970 5970 5970 5970 5970 5970 5969 5969
5934 5935 5937 5939 5941 5942 5943 5945 5946 5947 5948 5949 5950 5951 5952 5954 5955 5957 5958 5959 5959 5960 5961 5961 5961 5962 5962 5962 5962 5962 5962 5962 5962 5962 5962 5963 5962 5962 5962 5962 5963 5963 5964 5964 5965 5965 5966 5966 5966 5967 5967 5967 5967 5968 5968 5968 5968 5969 5969 5969 5970 5970 5970 5970 5970 5970 5970 5971 5971 5971 5971 5971 5971 5971 5971 5971 5970 5970 5970 5970 5970 5970 5969 5969 5969
5932 5934 5935 5937 5938 5939 5941 5942 5944 5945 5946 5947 5948 5949 5950 5952 5953 5955 5956 5957 5958 5958 5959 5959 5960 5960 5961 5961 5961 5961 5961 5962 5962 5962 5962 5962 5963 5963 5963 5963 5963 5963 5964 5964 5964 5965 5965 5966 5966 5966 5966 5967 5967 5967 5967 5968 5968 5968 5968 5969 5969 5969 5970 5969 5969 5969 5969 5970 5970 5970 5970 5970 5970 5970 5970 5970 5970 5970 5970 5970 5970 5969 5969 5969 5968
5931 5932 5933 5934 5935 5936 5938 5940 5941 5943 5944 5945 5945 5946 5948 5949 5951 5952 5953 5955 5955 5956 5957 5957 5958 5959 5959 5960 5960 5960 5961 5961 5961 5961 5961 5962 5962 5962 5963 5963 5963 5963 5964 5964 5964 5964 5965 5965 5965 5966 5966 5966 5967 5967 5967 5967 5967 5968 5968 5968 5968 5969 5969 5969 5969 5969 5969 5969 5969 5969 5969 5969 5969 5969 5969 5969 5969 5969 5969 5969 5969 5968 5968 5968 5967
5930 5931 5931 5931 5932 5934 5936 5937 5939 5940 5941 5942 5942 5943 5944 5946 5947 5949 5951 5952 5953 5954 5955 5955 5956 5957 5958 5958 5959 5959 5960 5960 5960 5960 5961 5961 5961 5962 5962 5963 5963 5963 5964 5964 5964 5964 5964 5964 5965 5965 5965 5966 5966 5966 5966 5966 5967 5967 5967 5967 5968 5968 5968 5968 5968 5968 5968 5968 5968 5968 5969 5969 5969 5969 5969 5969 5968 5968 5968 5968 5968 5967 5967 5966 5965
5928 5929 5928 5929 5930 5932 5933 5935 5936 5937 5938 5939 5940 5941 5942 5943 5944 5946 5947 5949 5950 5952 5953 5953 5954 5955 5956 5957 5957 5958 5959 5959 5959 5960 5960 5960 5961 5961 5961 5962 5962 5963 5963 5963 5963 5963 5964 5964 5964 5965 5965 5965 5966 5966 5966 5966 5966 5965 5966 5966 5966 5967 5967 5967 5967 5967 5967 5967 5967 5968 5968 5968 5968 5968 5968 5968 5968 5967 5967 5967 5967 5966 5966 5965 5964
5925 5925 5925 5926 5927 5928 5930 5932 5933 5934 5934 5935 5937 5938 5940 5941 5942 5943 5944 5946 5947 5949 5950 5951 5952 5953 5954 5955 5956 5956 5957 5958 5958 5959 5959 5959 5960 5960 5960 5961 5961 5962 5962 5962 5962 5962 5963 5963 5964 5964 5964 5965 5965 5965 5965 5965 5965 5965 5965 5965 5965 5965 5965 5965 5966 5966 5966 5966 5966 5966 5966 5967 5967 5966 5966 5966 5966 5966 5966 5966 5965 5964 5964 5964 5963
5921 5921 5921 5922 5923 5924 5926 5927 5928 5930 5931 5932 5934 5936 5937 5939 5940 5941 5942 5943 5944 5946 5947 5948 5949 5950 5951 5952 5953 5954 5955 5956 5956 5957 5957 5958 5958 5959 5959 5960 5960 5961 5961 5961 5961 5961 5961 5962 5962 5962 5963 5963 5963 5964 5964 5964 5964 5964 5964 5964 5964 5964 5963 5963 5964 5964 5964 5964 5964 5964 5965 5965 5964 5964 5964 5964 5964 5963 5963 5963 5963 5962 5961 5961 5960
5915 5916 5916 5918 5921 5922 5923 5923 5925 5927 5929 5930 5931 5933 5934 5936 5937 5939 5940 5941 5942 5943 5944 5945 5946 5948 5949 5950 5951 5952 5953 5954 5954 5955 5955 5956 5956 5957 5958 5958 5959 5959 5960 5960 5960 5960 5960 5960 5960 5960 5961 5961 5961 5961 5962 5962 5963 5962 5962 5963 5963 5962 5962 5962 5962 5962 5962 5962 5962 5962 5962 5962 5962 5962 5962 5961 5961 5961 5961 5961 5961 5960 5959 5958 5957
5911 5912 5914 5916 5919 5919 5919 5921 5924 5926 5928 5929 5930 5932 5933 5933 5935 5936 5938 5939 5940 5941 5942 5943 5944 5945 5946 5947 5948 5950 5951 5951 5952 5952 5953 5954 5954 5955 5956 5956 5957 5958 5958 5958 5959 5959 5959 5959 5959 5959 5959 5959 5959 5959 5960 5960 5961 5960 5961 5961 5961 5961 5961 5960 5960 5960 5960 5960 5959 5959 5959 5959 5958 5958 5959 5959 5958 5959 5958 5958 5958 5957 5956 5956 5954
5909 5909 5911 5914 5915 5913 5914 5918 5922 5924 5925 5926 5928 5930 5931 5932 5932 5933 5935 5936 5938 5939 5940 5941 5941 5942 5943 5944 5945 5947 5948 5948 5949 5950 5951 5952 5953 5953 5954 5954 5955 5955 5955 5956 5956 5956 5956 5957 5957 5957 5957 5957 5957 5957 5957 5958 5958 5958 5958 5959 5959 5959 5959 5959 5958 5958 5958 5958 5957 5957 5957 5956 5955 5955 5956 5956 5956 5956 5956 5956 5955 5955 5954 5954 5953
5905 5906 5908 5910 5910 5909 5910 5914 5917 5918 5919 5921 5924 5925 5926 5928 5930 5931 5932 5933 5934 5936 5937 5938 5939 5940 5941 5942 5943 5944 5945 5946 5947 5948 5948 5949 5950 5951 5952 5952 5952 5952 5952 5953 5953 5953 5954 5954 5954 5954 5954 5954 5955 5955 5955 5955 5955 5956 5956 5957 5957 5958 5958 5957 5957 5956 5955 5955 5955 5954 5953 5953 5953 5952 5952 5953 5954 5954 5954 5953 5953 5953 5952 5951 5951
5902 5903 5905 5907 5907 5907 5907 5909 5911 5913 5914 5916 5918 5919 5921 5924 5927 5929 5930 5930 5932 5933 5934 5935 5936 5938 5939 5940 5941 5942 5943 5943 5944 5945 5946 5946 5947 5948 5949 5949 5950 5950 5950 5950 5950 5950 5951 5951 5951 5951 5952 5952 5952 5952 5952 5953 5953 5954 5955 5955 5956 5956 5956 5956 5955 5954 5953 5953 5953 5952 5951 5951 5951 5950 5949 5950 5951 5951 5951 5951 5950 5950 5950 5949 5949
5900 5900 5902 5903 5904 5904 5905 5905 5907 5908 5910 5912 5913 5914 5915 5918 5922 5925 5926 5928 5929 5930 5931 5932 5934 5935 5937 5938 5939 5940 5940 5940 5941 5942 5942 5943 5944 5945 5946 5947 5947 5948 5948 5948 5948 5948 5948 5949 5949 5949 5949 5949 5949 5949 5950 5950 5951 5952 5953 5953 5953 5953 5953 5953 5952 5952 5951 5951 5951 5951 5949 5949 5949 5948 5947 5946 5947 5947 5947 5947 5947 5947 5947 5947 5947
5897 5898 5899 5900 5901 5902 5902 5903 5903 5904 5906 5907 5909 5911 5912 5914 5917 5919 5921 5924 5926 5927 5928 5929 5931 5932 5934 5935 5936 5937 5937 5937 5938 5939 5939 5940 5942 5943 5944 5944 5944 5945 5945 5945 5946 5946 5946 5946 5947 5946 5946 5946 5946 5946 5947 5948 5949 5950 5950 5951 5951 5950 5950 5949 5948 5948 5948 5948 5949 5948 5948 5947 5947 5946 5945 5944 5944 5943 5943 5944 5944 5943 5944 5945 5945
5894 5895 5896 5897 5898 5899 5900 5901 5901 5902 5903 5904 5906 5908 5909 5911 5913 5915 5917 5920 5922 5923 5924 5926 5928 5929 5930 5932 5933 5933 5934 5934 5935 5936 5936 5937 5939 5940 5941 5941 5942 5942 5942 5942 5943 5943 5944 5944 5945 5945 5945 5944 5944 5944 5945 5947 5947 5948 5947 5948 5947 5947 5947 5946 5944 5945 5945 5946 5946 5946 5946 5945 5944 5944 5943 5942 5941 5940 5940 5941 5940 5939 5940 5942 5942
5891 5892 5893 5894 5896 5897 5898 5899 5899 5900 5901 5902 5903 5904 5906 5908 5910 5913 5915 5917 5918 5919 5919 5921 5922 5924 5926 5927 5929 5929 5930 5931 5931 5932 5933 5934 5935 5936 5937 5938 5939 5939 5939 5940 5940 5941 5941 5942 5942 5942 5942 5942 5942 5942 5943 5944 5945 5945 5944 5945 5945 5944 5943 5941 5941 5942 5942 5943 5944 5944 5943 5942 5941 5940 5940 5939 5938 5937 5937 5938 5937 5935 5937 5939 5939
5887 5888 5889 5891 5893 5894 5895 5896 5897 5898 5899 5900 5901 5902 5903 5905 5907 5909 5911 5913 5914 5915 5915 5915 5917 5919 5921 5922 5923 5924 5925 5926 5927 5928 5929 5930 5931 5933 5934 5935 5936 5936 5936 5937 5937 5938 5938 5938 5939 5940 5940 5940 5939 5939 5939 5940 5940 5941 5941 5941 5941 5941 5939 5938 5938 5939 5939 5939 5940 5941 5941 5940 5939 5938 5937 5936 5934 5934 5934 5935 5933 5932 5933 5935 5935
5885 5885 5886 5889 5890 5891 5892 5893 5895 5896 5897 5898 5899 5899 5900 5901 5903 5905 5907 5908 5910 5910 5911 5913 5914 5916 5917 5918 5919 5919 5920 5922 5923 5925 5926 5927 5928 5929 5930 5931 5932 5933 5933 5934 5934 5934 5934 5935 5935 5936 5937 5937 5936 5935 5934 5935 5936 5936 5937 5937 5938 5937 5936 5936 5936 5936 5936 5936 5936 5937 5938 5938 5938 5937 5936 5934 5932 5931 5931 5931 5930 5929 5930 5931 5931
5882 5882 5884 5886 5888 5888 5889 5890 5892 5893 5895 5896 5897 5897 5898 5899 5900 5901 5902 5904 5906 5906 5908 5910 5911 5912 5914 5915 5916 5916 5917 5918 5919 5920 5921 5922 5923 5925 5926 5927 5928 5929 5930 5931 5931 5931 5931 5932 5932 5933 5933 5933 5932 5932 5931 5931 5932 5932 5932 5932 5933 5933 5933 5933 5933 5933 5933 5933 5933 5934 5935 5935 5935 5934 5933 5932 5930 5928 5927 5927 5927 5927 5927 5928 5928
5879 5879 5880 5883 5885 5886 5886 5887 5889 5890 5891 5892 5893 5895 5896 5896 5897 5898 5898 5900 5902 5903 5905 5906 5907 5908 5909 5911 5912 5912 5913 5913 5914 5915 5916 5917 5919 5920 5922 5923 5924 5925 5926 5927 5928 5928 5928 5928 5928 5928 5929 5929 5929 5928 5928 5928 5928 5928 5928 5928 5929 5929 5930 5930 5930 5930 5930 5931 5931 5931 5931 5931 5930 5929 5928 5927 5926 5924 5923 5924 5924 5924 5924 5924 5924
5875 5876 5877 5879 5881 5882 5883 5884 5885 5887 5888 5888 5890 5893 5894 5894 5893 5894 5896 5897 5899 5900 5901 5902 5902 5903 5905 5906 5907 5908 5908 5909 5910 5911 5912 5913 5915 5916 5918 5919 5920 5921 5922 5923 5924 5924 5924 5924 5924 5924 5924 5924 5924 5924 5924 5924 5924 5924 5924 5924 5924 5925 5925 5926 5926 5926 5927 5927 5927 5927 5926 5925 5924 5923 5922 5922 5921 5920 5920 5920 5920 5920 5920 5921 5921
5872 5873 5873 5875 5876 5878 5880 5880 5881 5883 5884 5885 5886 5889 5891 5891 5891 5891 5893 5894 5895 5896 5897 5898 5898 5899 5900 5901 5903 5904 5904 5905 5907 5908 5908 5909 5911 5913 5914 5915 5916 5917 5918 5919 5919 5919 5919 5919 5919 5919 5919 5919 5919 5919 5920 5920 5920 5920 5920 5920 5920 5921 5921 5921 5921 5922 5922 5921 5921 5921 5920 5919 5918 5918 5917 5916 5916 5916 5916 5916 5916 5916 5916 5917 5917
5867 5869 5870 5870 5872 5874 5876 5877 5878 5879 5881 5882 5883 5884 5886 5888 5888 5889 5889 5890 5891 5892 5893 5894 5895 5896 5897 5897 5898 5899 5900 5901 5903 5904 5905 5906 5907 5909 5910 5911 5912 5913 5914 5915 5915 5915 5915 5915 5915 5915 5915 5915 5915 5916 5916 5916 5916 5916 5916 5916 5916 5917 5917 5917 5916 5916 5916 5915 5914 5915 5915 5914 5913 5914 5913 5912 5912 5912 5911 5911 5911 5911 5911 5912 5913
5862 5864 5865 5866 5867 5869 5871 5873 5874 5875 5876 5877 5878 5879 5881 5883 5884 5885 5886 5886 5887 5887 5888 5889 5890 5891 5892 5893 5894 5895 5896 5898 5899 5900 5901 5902 5903 5904 5905 5906 5907 5908 5909 5910 5911 5911 5911 5911 5911 5911 5911 5912 5912 5912 5912 5911 5911 5912 5912 5912 5912 5913 5912 5912 5911 5911 5910 5910 5909 5910 5910 5909 5908 5908 5908 5908 5907 5907 5906 5906 5905 5905 5905 5906 5908
5857 5859 5860 5862 5863 5864 5866 5867 5869 5870 5871 5872 5873 5874 5876 5878 5879 5881 5882 5882 5883 5884 5885 5885 5886 5887 5888 5889 5890 5891 5892 5893 5895 5896 5897 5898 5899 5900 5901 5902 5903 5904 5905 5906 5907 5907 5907 5907 5907 5907 5908 5908 5908 5908 5907 5907 5907 5907 5908 5908 5908 5908 5908 5907 5906 5906 5906 5905 5905 5905 5905 5904 5904 5903 5903 5903 5903 5902 5901 5900 5901 5901 5900 5900 5902
5852 5853 5855 5856 5858 5859 5860 5862 5863 5865 5867 5868 5869 5870 5871 5873 5874 5876 5877 5878 5879 5880 5880 5881 5882 5883 5884 5885 5885 5886 5887 5888 5890 5891 5893 5894 5895 5896 5897 5898 5898 5899 5900 5901 5902 5902 5902 5902 5903 5903 5903 5903 5903 5903 5903 5903 5903 5903 5903 5903 5904 5903 5902 5902 5901 5901 5901 5901 5901 5901 5900 5899 5899 5899 5898 5898 5898 5897 5895 5895 5896 5896 5895 5894 5897
5846 5848 5849 5851 5853 5854 5856 5857 5858 5859 5861 5862 5864 5865 5866 5867 5869 5870 5872 5872 5873 5874 5875 5877 5878 5879 5879 5880 5881 5882 5882 5883 5885 5886 5887 5888 5889 5890 5891 5892 5893 5894 5895 5895 5896 5896 5896 5897 5897 5898 5898 5898 5898 5898 5898 5898 5898 5898 5898 5898 5898 5898 5897 5897 5896 5896 5896 5896 5896 5896 5895 5895 5894 5894 5894 5894 5893 5891 5889 5889 5890 5891 5890 5890 5892
5840 5841 5843 5845 5847 5849 5850 5852 5852 5853 5854 5856 5857 5859 5860 5861 5862 5864 5866 5867 5868 5869 5870 5871 5872 5873 5874 5875 5876 5877 5877 5878 5879 5880 5882 5882 5884 5885 5885 5886 5887 5888 5889 5889 5890 5890 5891 5891 5891 5892 5892 5892 5892 5893 5893 5893 5893 5893 5893 5893 5893 5892 5892 5891 5891 5891 5891 5891 5892 5891 5891 5890 5890 5889 5889 5889 5888 5886 5884 5883 5884 5885 5885 5885 5886
5833 5835 5837 5839 5841 5842 5844 5846 5847 5848 5849 5850 5851 5852 5854 5855 5856 5857 5859 5861 5862 5863 5864 5865 5867 5868 5868 5869 5870 5871 5872 5872 5873 5874 5876 5877 5878 5878 5879 5880 5880 5881 5882 5883 5884 5884 5885 5885 5885 5886 5886 5886 5887 5887 5887 5887 5888 5888 5888 5888 5887 5887 5887 5886 5886 5886 5886 5886 5886 5886 5886 5885 5885 5884 5884 5883 5883 5881 5879 5878 5878 5879 5879 5880 5880
5826 5828 5830 5833 5834 5836 5838 5839 5841 5842 5843 5844 5845 5846 5847 5849 5850 5851 5853 5854 5856 5857 5858 5859 5860 5861 5863 5863 5864 5865 5866 5867 5867 5868 5869 5871 5872 5872 5873 5873 5874 5874 5876 5877 5877 5878 5878 5879 5879 5880 5880 5881 5881 5881 5881 5881 5882 5882 5882 5882 5881 5881 5881 5880 5880 5879 5879 5880 5881 5881 5881 5880 5880 5880 5879 5879 5878 5877 5876 5874 5873 5873 5874 5874 5874
5818 5820 5823 5825 5828 5830 5831 5832 5833 5835 5836 5837 5838 5840 5841 5843 5844 5846 5847 5848 5849 5850 5852 5853 5854 5855 5856 5857 5858 5859 5859 5861 5862 5863 5864 5864 5865 5866 5866 5866 5867 5868 5869 5870 5871 5871 5872 5872 5873 5874 5874 5874 5875 5875 5875 5875 5875 5875 5876 5876 5875 5875 5875 5875 5874 5874 5873 5873 5874 5875 5875 5875 5875 5874 5874 5874 5873 5873 5872 5871 5870 5869 5869 5869 5869
5812 5813 5815 5818 5820 5823 5824 5825 5826 5827 5828 5830 5831 5833 5834 5836 5838 5839 5841 5843 5843 5844 5845 5846 5847 5849 5850 5851 5852 5852 5853 5854 5855 5857 5858 5858 5858 5859 5859 5860 5860 5861 5862 5863 5864 5865 5866 5866 5866 5867 5867 5868 5868 5868 5869 5869 5869 5869 5869 5870 5870 5870 5869 5869 5868 5868 5867 5867 5867 5868 5868 5869 5869 5869 5868 5868 5868 5868 5868 5867 5866 5865 5865 5864 5864
5805 5806 5808 5810 5812 5814 5816 5817 5818 5819 5821 5822 5824 5826 5828 5829 5831 5832 5834 5835 5837 5838 5838 5839 5840 5842 5843 5844 5845 5846 5847 5848 5849 5850 5851 5851 5851 5852 5852 5853 5853 5855 5855 5856 5857 5858 5859 5859 5860 5860 5861 5861 5861 5862 5862 5862 5862 5862 5863 5863 5864 5864 5864 5863 5862 5862 5862 5862 5861 5861 5861 5862 5862 5862 5862 5862 5862 5862 5862 5862 5861 5860 5860 5859 5859
5798 5799 5801 5803 5805 5806 5808 5809 5809 5811 5813 5815 5817 5819 5820 5822 5823 5824 5825 5827 5828 5830 5831 5832 5833 5834 5835 5836 5837 5839 5840 5841 5842 5843 5843 5843 5844 5844 5845 5845 5846 5847 5848 5849 5850 5850 5851 5852 5852 5853 5853 5854 5854 5855 5855 5856 5856 5856 5856 5856 5857 5857 5857 5857 5856 5856 5856 5856 5855 5855 5854 5854 5855 5855 5856 5856 5856 5856 5855 5855 5855 5855 5855 5854 5853
5790 5792 5793 5795 5797 5798 5800 5800 5801 5802 5804 5807 5809 5811 5813 5815 5816 5817 5818 5818 5820 5821 5823 5824 5825 5826 5827 5828 5829 5831 5832 5833 5834 5835 5835 5836 5836 5837 5837 5837 5838 5839 5840 5841 5841 5842 5843 5844 5844 5845 5845 5846 5847 5848 5848 5848 5849 5849 5849 5849 5850 5850 5850 5850 5849 5849 5849 5849 5849 5849 5848 5848 5848 5848 5848 5849 5850 5849 5849 5848 5848 5848 5848 5848 5847
5782 5784 5786 5788 5789 5790 5791 5792 5792 5793 5796 5799 5801 5803 5805 5807 5808 5809 5809 5810 5812 5813 5814 5815 5817 5818 5818 5819 5820 5822 5823 5824 5825 5826 5826 5827 5828 5828 5829 5829 5830 5830 5831 5831 5832 5833 5834 5835 5836 5836 5837 5838 5838 5839 5840 5840 5841 5841 5841 5842 5842 5842 5842 5842 5842 5842 5841 5841 5842 5842 5842 5841 5841 5840 5841 5842 5843 5843 5843 5842 5841 5841 5842 5841 5841
5774 5776 5778 5779 5781 5782 5783 5783 5784 5786 5788 5791 5792 5794 5796 5798 5799 5800 5801 5802 5804 5805 5806 5807 5808 5809 5809 5810 5811 5813 5814 5815 5816 5816 5817 5817 5818 5819 5820 5820 5821 5821 5822 5822 5823 5824 5825 5826 5827 5828 5828 5829 5830 5830 5831 5831 5832 5833 5833 5834 5834 5834 5834 5834 5834 5834 5834 5834 5834 5834 5834 5834 5834 5833 5833 5834 5835 5836 5836 5835 5835 5835 5835 5834 5834
5767 5768 5770 5771 5773 5774 5774 5775 5776 5778 5780 5782 5784 5786 5788 5789 5790 5791 5792 5794 5795 5797 5797 5798 5799 5799 5800 5801 5802 5804 5805 5806 5806 5807 5807 5808 5808 5809 5810 5811 5811 5812 5813 5813 5814 5815 5815 5816 5817 5818 5819 5820 5821 5821 5822 5822 5823 5823 5824 5825 5826 5826 5825 5825 5825 5825 5826 5826 5826 5826 5826 5826 5827 5826 5826 5826 5827 5827 5828 5828 5828 5828 5828 5828 5827
5760 5760 5761 5762 5764 5765 5766 5767 5769 5770 5772 5774 5775 5777 5778 5780 5781 5783 5784 5785 5787 5787 5789 5790 5790 5790 5791 5791 5792 5794 5795 5796 5797 5797 5797 5798 5799 5800 5801 5801 5802 5802 5803 5804 5805 5805 5806 5807 5808 5809 5809 5810 5811 5812 5812 5813 5813 5814 5814 5815 5816 5817 5817 5816 5816 5816 5817 5818 5818 5818 5818 5818 5819 5819 5819 5818 5818 5819 5819 5820 5820 5820 5820 5821 5821
5752 5752 5752 5753 5755 5757 5758 5759 5761 5762 5764 5765 5766 5768 5769 5771 5772 5774 5775 5776 5777 5778 5779 5780 5781 5782 5782 5782 5782 5784 5786 5787 5787 5787 5788 5788 5789 5790 5790 5791 5792 5792 5793 5794 5795 5796 5797 5797 5798 5799 5799 5800 5800 5801 5802 5802 5803 5804 5804 5805 5806 5807 5807 5807 5807 5807 5808 5809 5810 5810 5810 5810 5810 5810 5811 5810 5810 5810 5811 5811 5812 5812 5812 5813 5813
5743 5744 5744 5746 5747 5749 5750 5751 5753 5754 5755 5757 5758 5759 5760 5762 5763 5764 5766 5767 5768 5769 5770 5770 5771 5772 5773 5773 5773 5774 5776 5777 5777 5777 5778 5779 5779 5780 5781 5781 5781 5782 5783 5783 5784 5785 5787 5788 5788 5789 5789 5790 5790 5790 5790 5791 5791 5792 5793 5794 5795 5796 5797 5797 5797 5797 5798 5799 5800 5801 5801 5801 5801 5801 5802 5802 5802 5802 5802 5803 5803 5804 5804 5804 5804
5735 5736 5737 5738 5740 5741 5742 5743 5744 5745 5747 5748 5750 5751 5752 5753 5754 5755 5756 5757 5758 5759 5760 5761 5761 5762 5763 5764 5765 5765 5766 5766 5767 5768 5768 5769 5769 5770 5770 5771 5771 5772 5772 5773 5774 5775 5776 5777 5778 5778 5779 5779 5779 5778 5779 5779 5780 5781 5782 5783 5784 5785 5786 5786 5787 5787 5787 5789 5790 5791 5792 5792 5792 5792 5792 5792 5792 5793 5793 5793 5794 5794 5795 5795 5795
5727 5729 5730 5731 5732 5733 5734 5735 5736 5737 5739 5740 5741 5743 5744 5745 5745 5746 5747 5747 5748 5749 5750 5751 5752 5753 5753 5754 5755 5755 5755 5755 5756 5757 5758 5758 5759 5759 5760 5760 5761 5761 5762 5763 5764 5765 5766 5767 5767 5767 5768 5768 5768 5767 5767 5768 5769 5770 5771 5772 5773 5774 5775 5775 5776 5776 5776 5777 5779 5780 5781 5782 5783 5783 5783 5782 5782 5783 5784 5784 5784 5784 5785 5785 5786
5719 5721 5722 5723 5724 5725 5726 5727 5729 5730 5731 5732 5734 5734 5735 5736 5737 5738 5738 5739 5740 5740 5741 5741 5742 5743 5743 5744 5744 5744 5744 5745 5746 5746 5747 5747 5748 5748 5749 5749 5750 5750 5751 5752 5753 5754 5755 5755 5756 5757 5758 5758 5757 5756 5756 5756 5757 5758 5759 5760 5761 5762 5763 5763 5764 5765 5765 5766 5767 5768 5770 5771 5772 5772 5772 5772 5772 5773 5773 5774 5774 5774 5775 5776 5776
5710 5712 5714 5715 5716 5717 5718 5719 5721 5722 5723 5725 5725 5726 5727 5728 5729 5730 5730 5731 5731 5732 5732 5733 5733 5733 5734 5734 5734 5734 5735 5735 5735 5736 5736 5736 5736 5737 5737 5738 5739 5739 5740 5741 5742 5742 5743 5744 5745 5745 5746 5746 5746 5746 5745 5745 5746 5747 5747 5748 5748 5749 5750 5751 5752 5753 5753 5753 5754 5756 5758 5759 5760 5760 5760 5761 5761 5762 5762 5763 5763 5763 5765 5766 5766
5702 5704 5706 5707 5708 5709 5710 5712 5713 5714 5715 5717 5717 5718 5719 5720 5721 5722 5722 5723 5723 5723 5724 5724 5724 5724 5725 5725 5725 5725 5725 5725 5725 5725 5725 5726 5726 5726 5726 5726 5727 5728 5728 5729 5730 5730 5731 5732 5733 5733 5734 5735 5735 5734 5733 5734 5734 5735 5735 5735 5736 5737 5737 5738 5739 5740 5740 5740 5741 5742 5744 5746 5747 5748 5748 5748 5749 5750 5751 5752 5752 5752 5753 5755 5755
5694 5696 5698 5699 5701 5702 5703 5704 5705 5706 5708 5709 5709 5710 5711 5712 5713 5713 5714 5714 5714 5715 5715 5715 5715 5716 5716 5716 5716 5716 5716 5716 5716 5716 5716 5716 5716 5716 5715 5715 5716 5716 5717 5718 5718 5718 5719 5720 5720 5721 5722 5722 5722 5722 5722 5722 5722 5722 5722 5722 5723 5724 5725 5725 5726 5727 5727 5727 5728 5728 5730 5732 5734 5735 5735 5735 5736 5736 5738 5739 5740 5740 5741 5743 5744
5687 5688 5690 5692 5693 5695 5696 5697 5698 5699 5700 5701 5702 5702 5703 5704 5704 5705 5705 5705 5706 5706 5706 5706 5706 5706 5706 5706 5706 5706 5706 5706 5706 5706 5706 5706 5706 5706 5706 5706 5705 5705 5706 5706 5706 5707 5707 5707 5708 5708 5709 5709 5709 5709 5710 5710 5710 5709 5708 5709 5710 5711 5711 5712 5713 5713 5713 5713 5714 5715 5716 5718 5720 5720 5721 5722 5722 5723 5724 5726 5726 5727 5728 5730 5732
5679 5681 5682 5684 5686 5687 5688 5689 5690 5691 5692 5693 5694 5694 5695 5696 5696 5697 5697 5697 5697 5697 5697 5697 5697 5697 5697 5696 5696 5696 5696 5696 5696 5696 5696 5696 5696 5695 5695 5695 5695 5695 5695 5695 5695 5695 5695 5695 5695 5696 5696 5696 5696 5696 5697 5697 5697 5696 5696 5697 5697 5697 5697 5698 5698 5699 5698 5698 5700 5701 5703 5704 5705 5706 5707 5707 5708 5708 5710 5711 5712 5713 5715 5717 5719
5671 5673 5675 5676 5678 5679 5680 5682 5683 5684 5684 5685 5686 5687 5687 5688 5688 5688 5689 5689 5689 5689 5688 5688 5688 5688 5687 5687 5687 5687 5686 5686 5686 5686 5686 5685 5685 5684 5684 5684 5683 5683 5683 5683 5683 5683 5683 5683 5683 5683 5683 5683 5683 5683 5683 5684 5684 5684 5684 5684 5684 5684 5684 5684 5684 5684 5683 5683 5685 5687 5688 5689 5690 5691 5692 5693 5693 5693 5694 5695 5697 5699 5701 5703 5705